KMBO

Details ICAO KMBO
Name BRUCE CAMPBELL FLD
Region United States
Timezone America/Chicago (UTC-5.0)
Plans Departing 16
Arriving 3
Stats Elevation 326 ft / 99 m (AMSL)
Location 32.438722° -90.103105°
Runways 1
Magnetic Variation 1.086° W
Sunrise 2018-05-20 11:00:30 UTC / 2018-05-20 06:00:30 Local
Sunset 2018-05-21 00:56:15 UTC / 2018-05-20 19:56:15 Local
Advertisement - Login to hide

Runways

ID Width Length Bearing (true) Bearing (mag) Surface Threshold Offset Overrun Length
17 75 ft / 23 m 4,456 ft / 1,358 m 175.34° 176.43° Asphalt 0 ft / 0 m 0 ft / 0 m
35 75 ft / 23 m 4,456 ft / 1,358 m 355.34° 356.43° Asphalt 200 ft / 61 m 0 ft / 0 m

Map

Weather


0- 5 10 15 20 25 30 35+ Temperature / ° C

Clouds and Precipitation
Forecast for 2018-05-21 00:00 UTC. Updated 3 hours ago

Ground ~20,000 ft ~40,000 ft Winds

METAR

KMBO 210155Z AUTO 14009G20KT 10SM TS SCT048 SCT055 SCT075 26/17 A3002 RMK AO2 LTG DSNT ALQS

TAF

Not found

Frequencies

Recorded 119.12 MHz AWOS 3
Clearance 125.90 MHz CLNC DEL
Approach 125.25 MHz JACKSON APP/DEP
Unicom 122.80 MHz CTAF/UNICOM
Approach 123.90 MHz JACKSON APP/DEP
Warning: Do not use this data for real-world aviation or navigation. No guarantee of current accuracy is given.